Location: Ahstedt
(52.2048°N, 10.1060°E)
Time: 00:36:16
(UTC+00:00)

Cosmos 2263 Rocket - Pass Details

Date: 18 January 2026
Orbit: 821 x 849 km, 71.0° (Epoch: 18 February)

Event Time Altitude Azimuth Distance (km) Brightness Sun altitude
Exits shadow 05:44:24 - 333° (NNW) 2,728 4.5 -13.9°
Reaches altitude 10° 05:45:55 10° 347° (NNW) 2,484 4.4 -13.7°
Maximum altitude 05:47:55 12° 8° (N) 2,360 4.4 -13.4°
Drops below altitude 10° 05:49:56 10° 28° (NNE) 2,485 4.8 -13.1°
Sets 05:54:20 0° 60° (ENE) 3,420 6.0 -12.5°
